QPF
0.01 0.01 0.02 0.02 0.02 0.02 0.01 0.01 0.01 0.01 0.01 0.01 0.01 0.01 0.01 0.01 0.01 0.02 0.02 0.04 0.05 0.06 0.08 0.11 0.12 0.11 0.10 0.09 0.09 0.08 0.08 0.08 0.08 0.08 0.07 0.06 0.05 0.05 0.04 0.04 0.03 0.03 0.03
0.03 0.03 0.03 0.02 0.01 0.01 0.02 0.02 0.02 0.02 0.02 0.01 0.02 0.02 0.02 0.02 0.03 0.04 0.03 0.04 0.06 0.07 0.10 0.13 0.14 0.12 0.12 0.12 0.11 0.10 0.10 0.10 0.09 0.08 0.07 0.07 0.07 0.06 0.05 0.05 0.04 0.04 0.04
0.05 0.05 0.05 0.04 0.04 0.04 0.04 0.05 0.06 0.06 0.04 0.03 0.03 0.02 0.03 0.04 0.04 0.04 0.04 0.05 0.05 0.07 0.11 0.13 0.13 0.13 0.14 0.14 0.13 0.13 0.13 0.12 0.11 0.10 0.09 0.09 0.09 0.09 0.08 0.06 0.06 0.05 0.05
0.08 0.07 0.07 0.06 0.06 0.07 0.09 0.09 0.08 0.06 0.05 0.05 0.04 0.03 0.04 0.04 0.04 0.04 0.04 0.03 0.04 0.05 0.07 0.08 0.11 0.13 0.13 0.13 0.14 0.13 0.12 0.12 0.12 0.11 0.11 0.12 0.13 0.12 0.10 0.09 0.08 0.07 0.06
0.11 0.10 0.10 0.09 0.09 0.10 0.10 0.09 0.08 0.06 0.05 0.05 0.05 0.05 0.04 0.04 0.04 0.04 0.04 0.04 0.04 0.05 0.06 0.08 0.12 0.14 0.13 0.14 0.14 0.13 0.13 0.15 0.15 0.14 0.13 0.12 0.12 0.11 0.10 0.10 0.09 0.09 0.08
0.17 0.16 0.13 0.13 0.14 0.14 0.12 0.10 0.08 0.06 0.05 0.07 0.08 0.05 0.04 0.04 0.04 0.04 0.05 0.05 0.05 0.05 0.05 0.05 0.07 0.09 0.10 0.11 0.12 0.14 0.17 0.19 0.18 0.16 0.15 0.15 0.13 0.11 0.09 0.09 0.10 0.10 0.10
0.23 0.22 0.20 0.19 0.19 0.17 0.15 0.13 0.10 0.09 0.09 0.11 0.10 0.07 0.06 0.06 0.05 0.05 0.04 0.04 0.04 0.03 0.03 0.04 0.05 0.06 0.07 0.10 0.11 0.13 0.15 0.18 0.18 0.19 0.20 0.19 0.16 0.12 0.10 0.09 0.10 0.12 0.13
0.28 0.27 0.26 0.24 0.22 0.19 0.17 0.15 0.14 0.14 0.13 0.13 0.13 0.11 0.09 0.07 0.05 0.04 0.03 0.03 0.03 0.04 0.04 0.04 0.04 0.04 0.05 0.06 0.08 0.11 0.12 0.13 0.13 0.15 0.15 0.15 0.14 0.14 0.14 0.12 0.11 0.10 0.11
0.23 0.24 0.27 0.25 0.24 0.22 0.19 0.17 0.15 0.16 0.16 0.16 0.16 0.14 0.12 0.07 0.06 0.05 0.04 0.03 0.03 0.03 0.03 0.03 0.03 0.03 0.04 0.05 0.06 0.08 0.08 0.09 0.09 0.11 0.12 0.13 0.14 0.14 0.15 0.15 0.15 0.14 0.13
0.20 0.19 0.20 0.20 0.19 0.20 0.20 0.18 0.16 0.16 0.15 0.13 0.13 0.13 0.11 0.10 0.09 0.07 0.05 0.04 0.03 0.03 0.03 0.03 0.03 0.03 0.03 0.04 0.06 0.07 0.07 0.07 0.08 0.08 0.08 0.08 0.09 0.10 0.11 0.12 0.13 0.15 0.16
0.15 0.14 0.14 0.16 0.14 0.16 0.16 0.15 0.13 0.12 0.11 0.12 0.13 0.13 0.14 0.12 0.10 0.08 0.06 0.05 0.05 0.04 0.03 0.03 0.03 0.03 0.03 0.03 0.04 0.05 0.06 0.06 0.05 0.05 0.05 0.05 0.05 0.06 0.07 0.07 0.08 0.10 0.11
0.11 0.10 0.09 0.09 0.09 0.09 0.10 0.10 0.09 0.08 0.07 0.09 0.10 0.10 0.09 0.09 0.09 0.08 0.08 0.06 0.06 0.05 0.04 0.04 0.04 0.03 0.04 0.03 0.03 0.04 0.04 0.03 0.03 0.03 0.03 0.03 0.03 0.03 0.03 0.04 0.05 0.06 0.08
0.09 0.09 0.09 0.08 0.08 0.07 0.07 0.07 0.08 0.06 0.05 0.05 0.05 0.05 0.06 0.07 0.07 0.08 0.07 0.06 0.06 0.05 0.05 0.05 0.04 0.03 0.03 0.03 0.03 0.04 0.03 0.03 0.03 0.03 0.02 0.03 0.03 0.03 0.03 0.03 0.04 0.06 0.06
0.08 0.08 0.08 0.08 0.07 0.05 0.05 0.05 0.05 0.04 0.04 0.04 0.05 0.07 0.10 0.10 0.09 0.08 0.07 0.06 0.05 0.05 0.04 0.04 0.03 0.03 0.03 0.03 0.04 0.03 0.02 0.02 0.02 0.02 0.02 0.02 0.02 0.02 0.02 0.03 0.04 0.05 0.06
0.07 0.07 0.06 0.05 0.05 0.04 0.04 0.03 0.03 0.03 0.03 0.03 0.03 0.04 0.05 0.06 0.05 0.04 0.03 0.02 0.02 0.03 0.03 0.03 0.03 0.03 0.03 0.03 0.03 0.02 0.01 0.01 0.01 0.01 0.01 0.01 0.01 0.01 0.01 0.02 0.02 0.03 0.04
0.05 0.05 0.05 0.04 0.04 0.04 0.03 0.03 0.02 0.01 0.01 0.01 0.01 0.01 0.01 0.02 0.01 0.01 0.01 0.01 0.01 0.02 0.03 0.03 0.03 0.03 0.03 0.03 0.03 0.02 0.01 0.01 0.01 0.01 0.01 0.01 0.01 0.01 0.01 0.01 0.01 0.02 0.02
0.02 0.02 0.03 0.03 0.03 0.03 0.02 0.01 0.01 0.01 0.01 0.01 0.01 0.01 0.00 0.00 0.00 0.00 0.00 0.00 0.00 0.01 0.01 0.02 0.03 0.03 0.03 0.03 0.02 0.01 0.01 0.01 0.01 0.01 0.00 0.00 0.01 0.01 0.01 0.01 0.01 0.01 0.01
0.03 0.03 0.03 0.02 0.02 0.01 0.00 0.00 0.00 0.01 0.01 0.01 0.01 0.01 0.01 0.01 0.01 0.00 0.00 0.00 0.00 0.00 0.01 0.01 0.02 0.02 0.02 0.02 0.01 0.01 0.01 0.01 0.00 0.00 0.00 0.00 0.00 0.00 0.00 0.00 0.01 0.01 0.01
0.02 0.01 0.01 0.01 0.01 0.01 0.01 0.00 0.00 0.00 0.00 0.01 0.01 0.01 0.01 0.00 0.00 0.00 0.00 0.01 0.01 0.00 0.01 0.01 0.02 0.02 0.02 0.02 0.01 0.01 0.01 0.00 0.00 0.00 0.00 0.00 0.00 0.00 0.00 0.00 0.00 0.00 0.00
0.01 0.00 0.00 0.00 0.00 0.00 0.00 0.00 0.00 0.00 0.00 0.00 0.00 0.00 0.00 0.00 0.00 0.00 0.00 0.01 0.01 0.01 0.01 0.01 0.01 0.02 0.02 0.01 0.01 0.00 0.00 0.00 0.00 0.00 0.00 0.00 0.00 0.00 0.00 0.00 0.00 0.00 0.00
0.00 0.00 0.00 0.00 0.00 0.00 0.00 0.00 0.00 0.00 0.00 0.00 0.00 0.00 0.00 0.00 0.00 0.00 0.00 0.00 0.00 0.01 0.01 0.01 0.01 0.00 0.00 0.00 0.01 0.00 0.00 0.00 0.00 0.00 0.00 0.00 0.00 0.00 0.00 0.00 0.00 0.00 0.00
0.00 0.00 0.00 0.00 0.00 0.00 0.00 0.00 0.00 0.00 0.00 0.00 0.00 0.00 0.00 0.00 0.00 0.00 0.00 0.00 0.00 0.00 0.00 0.00 0.00 0.01 0.01 0.00 0.00 0.00 0.00 0.00 0.00 0.00 0.00 0.00 0.00 0.00 0.00 0.00 0.00 0.00 0.00
0.00 0.00 0.00 0.00 0.00 0.00 0.00 0.00 0.00 0.00 0.00 0.00 0.00 0.00 0.00 0.00 0.00 0.00 0.00 0.00 0.00 0.00 0.00 0.00 0.01 0.00 0.00 0.00 0.00 0.00 0.00 0.00 0.00 0.00 0.00 0.00 0.00 0.00 0.00 0.00 0.00 0.00 0.00
0.00 0.00 0.00 0.00 0.00 0.00 0.00 0.00 0.00 0.00 0.00 0.00 0.00 0.00 0.00 0.00 0.00 0.00 0.00 0.00 0.00 0.00 0.00 0.00 0.00 0.00 0.00 0.00 0.00 0.00 0.00 0.00 0.00 0.00 0.00 0.00 0.00 0.00 0.00 0.00 0.00 0.00 0.00
0.00 0.00 0.00 0.00 0.00 0.00 0.00 0.00 0.00 0.00 0.00 0.00 0.00 0.00 0.00 0.00 0.00 0.00 0.00 0.00 0.01 0.01 0.00 0.00 0.00 0.00 0.00 0.00 0.00 0.00 0.00 0.00 0.00 0.00 0.00 0.00 0.00 0.00 0.00 0.00 0.00 0.00 0.00
0.00 0.00 0.00 0.00 0.00 0.00 0.00 0.00 0.00 0.00 0.00 0.00 0.00 0.00 0.00 0.00 0.00 0.00 0.00 0.00 0.00 0.00 0.00 0.00 0.00 0.00 0.00 0.00 0.00 0.00 0.00 0.00 0.00 0.00 0.00 0.00 0.00 0.00 0.00 0.00 0.00 0.00 0.00
MSLP
1017.13 1017.27 1017.37 1017.46 1017.56 1017.68 1017.85 1018.04 1018.23 1018.40 1018.53 1018.61 1018.63 1018.61 1018.55 1018.48 1018.40 1018.32 1018.26 1018.19 1018.12 1018.05 1017.98 1017.92 1017.88 1017.87 1017.90 1017.96 1018.07 1018.19 1018.32 1018.46 1018.58 1018.70 1018.84 1018.98 1019.15 1019.35 1019.58 1019.81 1020.05 1020.27 1020.46
1017.15 1017.29 1017.40 1017.48 1017.58 1017.71 1017.87 1018.05 1018.24 1018.43 1018.58 1018.68 1018.74 1018.76 1018.73 1018.68 1018.62 1018.54 1018.46 1018.36 1018.26 1018.14 1018.02 1017.91 1017.82 1017.76 1017.74 1017.76 1017.81 1017.89 1017.98 1018.09 1018.19 1018.31 1018.44 1018.58 1018.76 1018.96 1019.18 1019.41 1019.63 1019.84 1020.02
1017.19 1017.35 1017.48 1017.58 1017.69 1017.83 1017.99 1018.17 1018.36 1018.54 1018.71 1018.84 1018.94 1019.00 1019.02 1019.00 1018.96 1018.90 1018.81 1018.69 1018.55 1018.40 1018.23 1018.08 1017.94 1017.83 1017.76 1017.72 1017.73 1017.76 1017.81 1017.88 1017.97 1018.07 1018.19 1018.33 1018.50 1018.69 1018.89 1019.10 1019.30 1019.48 1019.64
1017.28 1017.48 1017.64 1017.77 1017.90 1018.04 1018.20 1018.37 1018.56 1018.74 1018.92 1019.07 1019.20 1019.30 1019.36 1019.39 1019.39 1019.35 1019.27 1019.15 1019.00 1018.82 1018.63 1018.43 1018.26 1018.11 1017.99 1017.91 1017.87 1017.86 1017.88 1017.93 1017.99 1018.07 1018.17 1018.30 1018.44 1018.60 1018.77 1018.95 1019.11 1019.25 1019.38
1017.45 1017.70 1017.90 1018.07 1018.21 1018.36 1018.51 1018.66 1018.83 1018.99 1019.16 1019.32 1019.47 1019.60 1019.71 1019.80 1019.84 1019.84 1019.79 1019.69 1019.56 1019.38 1019.19 1018.99 1018.79 1018.62 1018.48 1018.36 1018.29 1018.24 1018.23 1018.24 1018.28 1018.34 1018.41 1018.51 1018.62 1018.74 1018.86 1018.98 1019.09 1019.19 1019.27
1017.74 1018.03 1018.27 1018.46 1018.62 1018.76 1018.89 1019.02 1019.14 1019.28 1019.42 1019.57 1019.73 1019.89 1020.04 1020.17 1020.27 1020.32 1020.33 1020.28 1020.18 1020.05 1019.88 1019.70 1019.51 1019.34 1019.19 1019.06 1018.96 1018.89 1018.84 1018.82 1018.82 1018.85 1018.89 1018.94 1019.00 1019.07 1019.14 1019.20 1019.25 1019.29 1019.31
1018.14 1018.48 1018.74 1018.96 1019.12 1019.24 1019.34 1019.42 1019.50 1019.59 1019.70 1019.83 1019.99 1020.16 1020.34 1020.52 1020.67 1020.78 1020.85 1020.87 1020.83 1020.76 1020.64 1020.51 1020.36 1020.20 1020.06 1019.93 1019.81 1019.71 1019.64 1019.58 1019.54 1019.52 1019.52 1019.52 1019.53 1019.54 1019.55 1019.54 1019.53 1019.50 1019.47
1018.67 1019.03 1019.32 1019.53 1019.68 1019.78 1019.84 1019.88 1019.91 1019.96 1020.03 1020.13 1020.28 1020.45 1020.65 1020.85 1021.04 1021.21 1021.34 1021.43 1021.47 1021.46 1021.41 1021.34 1021.24 1021.12 1020.99 1020.86 1020.73 1020.61 1020.50 1020.40 1020.32 1020.25 1020.20 1020.15 1020.11 1020.06 1020.00 1019.93 1019.85 1019.77 1019.68
1019.30 1019.67 1019.96 1020.16 1020.29 1020.37 1020.40 1020.40 1020.39 1020.40 1020.44 1020.52 1020.65 1020.81 1021.01 1021.23 1021.44 1021.64 1021.82 1021.96 1022.06 1022.12 1022.14 1022.12 1022.07 1021.99 1021.89 1021.76 1021.61 1021.46 1021.30 1021.16 1021.02 1020.91 1020.80 1020.71 1020.61 1020.51 1020.40 1020.28 1020.14 1020.00 1019.87
1019.97 1020.34 1020.62 1020.81 1020.93 1020.99 1021.00 1020.98 1020.96 1020.96 1020.98 1021.04 1021.16 1021.31 1021.49 1021.70 1021.91 1022.12 1022.30 1022.47 1022.61 1022.71 1022.78 1022.81 1022.80 1022.74 1022.64 1022.50 1022.33 1022.14 1021.93 1021.73 1021.55 1021.38 1021.22 1021.08 1020.95 1020.81 1020.65 1020.49 1020.31 1020.12 1019.94
1020.64 1021.00 1021.27 1021.45 1021.56 1021.61 1021.63 1021.62 1021.61 1021.62 1021.65 1021.72 1021.82 1021.96 1022.12 1022.30 1022.48 1022.66 1022.83 1022.99 1023.13 1023.24 1023.33 1023.38 1023.39 1023.34 1023.23 1023.07 1022.85 1022.61 1022.35 1022.08 1021.84 1021.62 1021.42 1021.24 1021.08 1020.91 1020.72 1020.53 1020.31 1020.09 1019.87
1021.27 1021.61 1021.86 1022.04 1022.15 1022.22 1022.26 1022.29 1022.32 1022.37 1022.44 1022.53 1022.64 1022.76 1022.90 1023.04 1023.17 1023.30 1023.42 1023.53 1023.64 1023.74 1023.81 1023.86 1023.85 1023.78 1023.65 1023.45 1023.18 1022.88 1022.55 1022.22 1021.91 1021.64 1021.40 1021.19 1021.00 1020.81 1020.62 1020.40 1020.16 1019.91 1019.66
1021.82 1022.15 1022.38 1022.55 1022.68 1022.78 1022.87 1022.96 1023.05 1023.16 1023.28 1023.41 1023.55 1023.67 1023.78 1023.87 1023.95 1024.00 1024.06 1024.11 1024.16 1024.21 1024.25 1024.26 1024.23 1024.13 1023.95 1023.70 1023.38 1023.00 1022.60 1022.20 1021.83 1021.50 1021.23 1020.99 1020.78 1020.58 1020.37 1020.14 1019.88 1019.60 1019.32
1022.31 1022.61 1022.83 1023.01 1023.16 1023.29 1023.43 1023.59 1023.76 1023.94 1024.13 1024.31 1024.47 1024.60 1024.69 1024.75 1024.76 1024.75 1024.73 1024.70 1024.69 1024.68 1024.67 1024.64 1024.56 1024.42 1024.20 1023.89 1023.51 1023.07 1022.60 1022.12 1021.69 1021.31 1020.99 1020.73 1020.50 1020.29 1020.07 1019.82 1019.55 1019.25 1018.94
1022.76 1023.03 1023.24 1023.42 1023.59 1023.76 1023.95 1024.16 1024.40 1024.65 1024.90 1025.14 1025.33 1025.48 1025.56 1025.58 1025.54 1025.47 1025.38 1025.29 1025.21 1025.15 1025.08 1025.01 1024.89 1024.71 1024.45 1024.09 1023.65 1023.15 1022.61 1022.08 1021.58 1021.15 1020.79 1020.49 1020.24 1020.01 1019.78 1019.52 1019.23 1018.90 1018.57
1023.21 1023.46 1023.65 1023.83 1024.00 1024.20 1024.42 1024.68 1024.96 1025.26 1025.56 1025.83 1026.06 1026.21 1026.29 1026.29 1026.23 1026.11 1025.97 1025.83 1025.70 1025.58 1025.48 1025.37 1025.23 1025.01 1024.72 1024.33 1023.84 1023.29 1022.70 1022.11 1021.56 1021.08 1020.67 1020.33 1020.05 1019.80 1019.55 1019.27 1018.96 1018.62 1018.26
1023.70 1023.92 1024.11 1024.28 1024.45 1024.65 1024.88 1025.14 1025.44 1025.76 1026.08 1026.37 1026.61 1026.77 1026.85 1026.84 1026.75 1026.61 1026.44 1026.26 1026.10 1025.96 1025.83 1025.69 1025.53 1025.30 1024.99 1024.58 1024.07 1023.49 1022.86 1022.23 1021.64 1021.10 1020.65 1020.27 1019.96 1019.68 1019.40 1019.11 1018.78 1018.42 1018.04
1024.25 1024.46 1024.64 1024.80 1024.96 1025.14 1025.35 1025.59 1025.87 1026.17 1026.48 1026.75 1026.98 1027.14 1027.21 1027.20 1027.10 1026.94 1026.76 1026.56 1026.38 1026.22 1026.07 1025.93 1025.76 1025.52 1025.21 1024.80 1024.28 1023.69 1023.05 1022.40 1021.77 1021.20 1020.71 1020.29 1019.94 1019.63 1019.33 1019.02 1018.68 1018.30 1017.90
1024.85 1025.06 1025.23 1025.38 1025.52 1025.67 1025.84 1026.04 1026.27 1026.52 1026.77 1027.01 1027.21 1027.35 1027.40 1027.38 1027.28 1027.11 1026.92 1026.71 1026.52 1026.34 1026.18 1026.03 1025.86 1025.63 1025.32 1024.92 1024.42 1023.84 1023.20 1022.54 1021.91 1021.32 1020.80 1020.35 1019.97 1019.63 1019.31 1018.98 1018.63 1018.24 1017.84
1025.48 1025.69 1025.87 1026.01 1026.13 1026.24 1026.36 1026.49 1026.64 1026.82 1027.01 1027.18 1027.33 1027.43 1027.46 1027.42 1027.31 1027.14 1026.93 1026.71 1026.50 1026.32 1026.14 1025.98 1025.80 1025.57 1025.28 1024.89 1024.42 1023.87 1023.26 1022.62 1021.99 1021.40 1020.87 1020.40 1020.00 1019.64 1019.30 1018.96 1018.61 1018.23 1017.83
1026.08 1026.32 1026.50 1026.64 1026.74 1026.81 1026.87 1026.93 1027.01 1027.10 1027.20 1027.31 1027.39 1027.44 1027.44 1027.37 1027.24 1027.05 1026.84 1026.60 1026.37 1026.16 1025.96 1025.77 1025.58 1025.35 1025.07 1024.71 1024.27 1023.76 1023.19 1022.60 1022.00 1021.42 1020.90 1020.44 1020.02 1019.65 1019.30 1018.96 1018.60 1018.23 1017.84
1026.63 1026.88 1027.09 1027.23 1027.31 1027.35 1027.36 1027.35 1027.35 1027.35 1027.37 1027.40 1027.42 1027.42 1027.37 1027.27 1027.12 1026.92 1026.68 1026.42 1026.15 1025.91 1025.67 1025.45 1025.24 1025.00 1024.72 1024.39 1023.99 1023.53 1023.02 1022.48 1021.93 1021.40 1020.90 1020.45 1020.04 1019.67 1019.32 1018.97 1018.62 1018.26 1017.88
1027.09 1027.37 1027.59 1027.73 1027.81 1027.82 1027.78 1027.72 1027.64 1027.58 1027.52 1027.48 1027.44 1027.39 1027.30 1027.17 1027.00 1026.77 1026.50 1026.21 1025.91 1025.62 1025.35 1025.09 1024.84 1024.59 1024.31 1024.00 1023.64 1023.23 1022.79 1022.31 1021.82 1021.35 1020.89 1020.47 1020.08 1019.72 1019.37 1019.02 1018.68 1018.32 1017.96
1027.47 1027.76 1027.99 1028.14 1028.20 1028.19 1028.12 1028.01 1027.89 1027.76 1027.65 1027.55 1027.46 1027.36 1027.24 1027.09 1026.89 1026.64 1026.34 1026.02 1025.69 1025.36 1025.04 1024.74 1024.46 1024.19 1023.91 1023.61 1023.29 1022.93 1022.55 1022.15 1021.73 1021.31 1020.91 1020.52 1020.16 1019.80 1019.46 1019.12 1018.78 1018.42 1018.07
1027.80 1028.08 1028.30 1028.44 1028.50 1028.47 1028.38 1028.24 1028.08 1027.91 1027.76 1027.62 1027.49 1027.36 1027.21 1027.03 1026.81 1026.54 1026.23 1025.89 1025.53 1025.17 1024.82 1024.48 1024.17 1023.87 1023.59 1023.30 1023.01 1022.69 1022.37 1022.02 1021.67 1021.31 1020.96 1020.61 1020.27 1019.94 1019.60 1019.26 1018.91 1018.56 1018.21
1028.09 1028.36 1028.56 1028.68 1028.72 1028.68 1028.56 1028.40 1028.22 1028.02 1027.84 1027.67 1027.51 1027.36 1027.19 1027.00 1026.77 1026.49 1026.18 1025.83 1025.45 1025.07 1024.70 1024.34 1024.00 1023.69 1023.39 1023.11 1022.83 1022.55 1022.26 1021.96 1021.66 1021.35 1021.04 1020.72 1020.40 1020.08 1019.75 1019.41 1019.06 1018.71 1018.36
Thickness
5722 5722 5721 5721 5720 5719 5719 5718 5717 5716 5716 5715 5715 5714 5714 5713 5712 5711 5710 5709 5708 5707 5707 5705 5704 5702 5700 5698 5697 5696 5694 5693 5692 5690 5689 5688 5687 5686 5684 5683 5682 5681 5680
5720 5719 5718 5718 5718 5717 5716 5715 5714 5713 5712 5711 5711 5710 5709 5708 5708 5707 5706 5705 5704 5703 5702 5701 5700 5698 5697 5695 5693 5692 5691 5689 5688 5687 5685 5684 5683 5681 5680 5679 5678 5677 5676
5716 5716 5715 5714 5714 5713 5712 5711 5710 5708 5707 5707 5706 5705 5704 5703 5702 5701 5700 5699 5698 5698 5697 5696 5694 5693 5692 5690 5689 5688 5686 5685 5683 5681 5680 5679 5677 5676 5675 5673 5672 5671 5670
5713 5712 5711 5710 5710 5709 5707 5707 5705 5704 5702 5701 5700 5699 5698 5697 5696 5695 5693 5692 5691 5690 5690 5689 5689 5687 5686 5685 5684 5682 5680 5679 5677 5675 5674 5672 5671 5670 5668 5667 5666 5665 5664
5709 5708 5707 5706 5705 5704 5703 5702 5700 5699 5697 5695 5694 5692 5690 5689 5688 5687 5686 5685 5684 5683 5682 5681 5681 5680 5678 5678 5677 5676 5674 5672 5671 5669 5667 5665 5664 5663 5661 5660 5658 5657 5656
5704 5703 5702 5701 5700 5698 5697 5696 5694 5693 5691 5689 5687 5684 5681 5680 5679 5678 5677 5676 5675 5674 5673 5672 5671 5670 5669 5669 5668 5668 5666 5665 5663 5661 5659 5657 5655 5654 5652 5651 5650 5648 5647
5697 5697 5695 5694 5693 5692 5691 5690 5688 5685 5683 5682 5679 5674 5672 5671 5670 5668 5667 5666 5666 5665 5664 5663 5661 5660 5659 5658 5657 5657 5656 5655 5653 5651 5649 5647 5645 5644 5642 5641 5639 5638 5636
5689 5689 5688 5686 5685 5685 5684 5683 5681 5679 5675 5674 5672 5668 5664 5661 5660 5659 5657 5656 5655 5655 5654 5652 5651 5649 5648 5647 5646 5645 5644 5643 5642 5640 5638 5636 5634 5632 5631 5629 5628 5626 5625
5679 5680 5679 5678 5677 5677 5675 5674 5675 5673 5669 5666 5665 5663 5659 5655 5652 5649 5647 5645 5644 5644 5642 5640 5639 5637 5635 5634 5633 5632 5631 5630 5629 5628 5626 5624 5622 5620 5618 5617 5615 5614 5612
5667 5668 5668 5668 5667 5666 5665 5665 5664 5664 5663 5659 5656 5654 5652 5651 5646 5641 5637 5635 5633 5631 5629 5628 5626 5624 5623 5621 5620 5619 5618 5617 5615 5614 5612 5611 5609 5608 5606 5604 5602 5600 5599
5655 5656 5656 5655 5655 5655 5654 5653 5653 5652 5651 5649 5646 5643 5641 5639 5638 5635 5629 5625 5622 5619 5616 5615 5613 5611 5610 5608 5607 5606 5604 5603 5601 5599 5597 5596 5595 5594 5592 5591 5589 5587 5585
5642 5643 5643 5643 5643 5642 5642 5641 5640 5639 5637 5636 5634 5631 5629 5628 5625 5623 5618 5613 5610 5606 5604 5602 5600 5598 5596 5595 5594 5592 5591 5589 5587 5585 5583 5581 5580 5579 5577 5576 5574 5572 5571
5629 5629 5630 5630 5630 5629 5628 5628 5627 5625 5623 5622 5620 5618 5616 5613 5612 5610 5606 5601 5597 5593 5590 5589 5587 5584 5582 5581 5580 5578 5576 5574 5573 5571 5569 5567 5565 5564 5562 5560 5558 5556 5555
5616 5616 5616 5616 5616 5615 5614 5614 5613 5611 5609 5607 5606 5604 5602 5600 5598 5597 5594 5590 5586 5581 5578 5575 5573 5572 5569 5568 5565 5563 5562 5560 5558 5556 5554 5552 5550 5549 5547 5545 5543 5541 5539
5604 5603 5602 5601 5601 5601 5599 5598 5597 5595 5594 5592 5590 5589 5587 5585 5584 5582 5580 5578 5575 5571 5566 5561 5559 5558 5556 5554 5552 5550 5548 5546 5544 5542 5541 5539 5537 5535 5533 5531 5528 5526 5524
5590 5588 5588 5587 5587 5585 5585 5583 5581 5580 5579 5577 5575 5574 5572 5570 5568 5567 5566 5563 5561 5558 5552 5547 5544 5543 5542 5541 5539 5537 5535 5533 5530 5529 5527 5526 5524 5522 5519 5517 5515 5512 5510
5576 5575 5574 5573 5572 5570 5569 5568 5567 5565 5564 5562 5561 5559 5557 5555 5553 5551 5550 5548 5545 5543 5539 5533 5530 5529 5528 5527 5525 5524 5522 5520 5519 5518 5516 5514 5512 5510 5507 5505 5502 5499 5497
5563 5561 5560 5559 5557 5556 5555 5554 5552 5550 5549 5547 5546 5545 5542 5541 5538 5536 5534 5532 5530 5527 5525 5521 5518 5516 5515 5513 5512 5511 5509 5509 5508 5507 5505 5503 5501 5498 5496 5493 5491 5488 5486
5549 5548 5546 5545 5544 5542 5541 5540 5538 5537 5535 5534 5533 5531 5528 5527 5524 5522 5520 5517 5515 5513 5510 5507 5505 5503 5502 5501 5500 5500 5499 5498 5497 5496 5494 5492 5490 5488 5485 5483 5480 5478 5476
5537 5535 5533 5532 5530 5529 5528 5527 5525 5524 5522 5521 5519 5518 5516 5514 5511 5509 5507 5505 5502 5500 5498 5496 5494 5493 5491 5490 5488 5487 5488 5487 5486 5486 5484 5482 5481 5479 5477 5474 5472 5469 5467
5524 5523 5521 5519 5518 5517 5515 5515 5514 5513 5510 5509 5508 5506 5504 5502 5500 5498 5497 5494 5492 5490 5488 5486 5485 5483 5482 5481 5479 5476 5476 5476 5477 5475 5474 5474 5473 5471 5469 5466 5464 5462 5460
5512 5510 5508 5507 5506 5505 5504 5504 5503 5502 5500 5498 5496 5494 5493 5491 5489 5487 5486 5485 5483 5481 5479 5477 5476 5474 5473 5471 5470 5468 5467 5467 5469 5467 5465 5467 5466 5464 5462 5460 5458 5456 5454
5501 5499 5497 5496 5495 5494 5494 5494 5493 5491 5490 5488 5486 5484 5484 5482 5479 5478 5477 5476 5475 5473 5471 5469 5468 5467 5466 5465 5462 5462 5461 5459 5459 5460 5458 5461 5460 5459 5458 5455 5453 5451 5449
5491 5489 5487 5486 5485 5484 5484 5484 5483 5482 5480 5479 5477 5476 5475 5473 5471 5470 5469 5468 5467 5466 5465 5463 5462 5461 5460 5459 5457 5456 5455 5453 5454 5454 5452 5454 5455 5454 5453 5451 5450 5447 5445
5481 5479 5477 5476 5476 5474 5475 5475 5474 5473 5472 5471 5470 5469 5468 5467 5466 5464 5463 5461 5461 5461 5460 5459 5458 5458 5458 5457 5456 5453 5453 5453 5454 5454 5449 5448 5450 5449 5449 5448 5446 5444 5441
5473 5472 5470 5468 5467 5466 5466 5466 5466 5466 5465 5464 5464 5463 5463 5461 5460 5459 5457 5456 5456 5456 5455 5456 5456 5457 5457 5456 5455 5453 5451 5451 5450 5451 5448 5446 5446 5444 5446 5446 5443 5441 5438